Other Public Products
Issued by NWS Grand Forks, ND

Home | Current Version | Previous Version | Graphics & Text | Print | Product List | Glossary On
Versions: 1 2 3 4 5 6 7 8 9 10 11 12 13 14 15 16 17 18 19 20 21 22 23 24 25 26 27 28 29 30 31 32 33 34 35 36 37 38 39 40 41 42 43 44 45 46 47 48 49 50
000
FPUS83 KFGF 050331
OPUFGF
PRAIRIE TO PINES WEATHER ROUNDUP
NATIONAL WEATHER SERVICE EASTERN NORTH DAKOTA/GRAND FORKS ND
900 PM CST WED MAR 04 2015

 **SATELLITE DATA USED TO AUGMENT SKY COVER AT AUTOMATED STATIONS**
 *****  WEATHER ACROSS EASTERN NORTH DAKOTA  *****

CITY           SKY/WX    TMP DP  RH WIND       PRES   REMARKS
GRAND FORKS    CLEAR     -9 -15  75 W6        30.39R WCI -22
GRAND FORKS AF CLEAR     -8 -15  69 NW6       30.38R WCI -21
GRAND CITY NWS   N/A     -8 N/A N/A W2          N/A
BUXTON           N/A     -8 -13  76 W6          N/A  WCI -21
DEVILS LAKE    CLEAR     -8 -17  65 W7        30.32S WCI -22
FARGO          FAIR      -3 -11  68 W8        30.40S WCI -18
WAHPETON ARPT  CLEAR     -4 -11  71 CALM      30.41R
$$

 *****  WEATHER ACROSS CENTRAL AND WESTERN NORTH DAKOTA  *****

CITY           SKY/WX    TMP DP  RH WIND       PRES   REMARKS
JAMESTOWN      CLEAR     -5 -13  68 W5        30.35S WCI -16
BISMARCK       CLEAR     -4 -10  75 E5        30.34F WCI -15
MINOT          PTCLDY    -5 -14  65 SW6       30.29F WCI -18
MINOT AFB      PTCLDY   -12 -17  75 SW2       30.29F
GARRISON         N/A     -7 -14  71 CALM      30.28F
WILLISTON        N/A    N/A N/A N/A MISG      30.23F
DICKINSON      CLEAR     -1 -10  65 S6        30.18F WCI -13
HETTINGER      CLEAR     -1 -11  62 SE5       30.22S WCI -11
$$

 *****  OTHER OBSERVATIONS NORTHEAST NORTH DAKOTA  *****

CITY           SKY/WX    TMP DP  RH WIND       PRES   REMARKS
WALHALLA         N/A     -4 -13  65 W6        30.35S WCI -16
LANGDON        NOT AVBL
CAVALIER       FAIR      -8 -13  77 SW5       30.37R WCI -19
GRAFTON        NOT AVBL
CANDO          FAIR     -11 -18  70 W8        30.32S WCI -28
FORT TOTTEN    NOT AVBL
ROLLA          FAIR      -9 -17  70 SW8       30.25F WCI -26
RUGBY          FAIR     -11 -17  77 W8        30.31F WCI -28
 ***** THE ABOVE OBSERVATIONS ARE NON NWS ARE NOT QUALITY
        CONTROLLED AND MAY MIS-REPORT RAIN FOR SNOW...
$$

 *****  OTHER OBSERVATIONS SOUTHEAST NORTH DAKOTA *****

CITY           SKY/WX    TMP DP  RH WIND       PRES   REMARKS
COOPERSTOWN    NOT AVBL
VALLEY CITY    FAIR      -6 -11  77 NW9       30.35S WCI -22
OAKES            N/A     -4 -11  71 W6        30.39R WCI -16
GWINNER        CLEAR      0  -9  65 W7        30.40R WCI -13
SHEYENNE NWR     N/A     -5 -13  69 NW6       29.95S WCI -18
BUFFALO        NOT AVBL
WYNDMERE       NOT AVBL
 ***** THE ABOVE OBSERVATIONS ARE NON NWS ARE NOT QUALITY
       CONTROLLED AND MAY MIS-REPORT RAIN FOR SNOW...
$$

  *****  WEATHER ACROSS NORTHERN MINNESOTA  *****

CITY           SKY/WX    TMP DP  RH WIND       PRES   REMARKS
FLAG ISLAND    CLEAR     -8 -15  71 W9        30.28R WCI -25
WARROAD        CLEAR     -9 -15  77 W7        30.31R WCI -24
ROSEAU         CLEAR     -8 -15  71 W6        30.32S WCI -21
HALLOCK        CLEAR     -8 -13  77 W7        30.36S WCI -22
THF RVR FALLS  CLEAR     -8 -22  49 W5        30.34R WCI -19
HALSTAD          N/A     -6 -13  70 W6          N/A  WCI -18
FOSSTON        CLEAR    -13 -18  77 CALM      30.33S
BAUDETTE       CLEAR     -8 -16  67 W8        30.27R WCI -24
WASKISH        CLEAR     -9 -15  77 W5        30.30R WCI -21
CROOKSTON      CLEAR     -8 -13  77 W7        30.39S WCI -22
$$
  *****  WEATHER ACROSS CENTRAL AND WEST MINNESOTA  *****

CITY           SKY/WX    TMP DP  RH WIND       PRES   REMARKS
BEMIDJI        CLEAR    -10 -16  76 W5        30.30R WCI -22
PARK RAPIDS    CLEAR     -8 -14  74 NW5       30.29R WCI -19
WADENA         CLEAR     -8 -11  84 CALM      30.32R
DETROIT LAKES  PTCLDY    -4  -8  84 NW6       30.34R WCI -16
MOORHEAD       CLEAR      0  -8  71 NW8       30.40S WCI -15
FERGUS FALLS   CLEAR     -6 -11  77 NW6       30.42R WCI -18
ELBOW LAKE     FAIR      -6 -10  81 NW3       30.37R
MORRIS MN      CLEAR     -8 -13  77 W6        30.39R WCI -21
STAPLES        FAIR      -9 -17  70 NW5       30.33R WCI -21
WHEATON        CLEAR     -8 -13  77 W7        30.43R WCI -22
$$
  *****  WEATHER ELSEWHERE ACROSS MINNESOTA  *****

CITY           SKY/WX    TMP DP  RH WIND       PRES   REMARKS
DULUTH         FAIR      -4 -16  56 NW9       30.23R WCI -20
INTRNTL FALLS  CLEAR     -7 -16  65 W7        30.26R WCI -21
ELY            CLEAR     -8 -17  65 NW5       30.23R WCI -19
CLOQUET        FAIR      -4 -17  54 NW9       30.27R WCI -20
BRAINERD       CLEAR     -5 -15  62 NW7       30.32R WCI -19
HIBBING        FAIR      -6 -16  61 W7        30.25R WCI -20
ALEXANDRIA     FAIR      -8 -13  78 NW6       30.33R WCI -21
SAINT CLOUD    CLEAR     -3 -13  62 W8        30.35R WCI -18
MINNEAPOLIS    CLEAR      1 -13  51 NW9       30.39R WCI -14
$$

  *****  WEATHER ACROSS SOUTH DAKOTA  *****

CITY           SKY/WX    TMP DP  RH WIND       PRES   REMARKS
SIOUX FALLS    CLEAR      0  -7  72 NW5       30.41R WCI -10
BROOKINGS      NOT AVBL
WATERTOWN      CLEAR     -7 -14  71 W6        30.35R WCI -20
HURON          CLEAR     -4 -12  68 N3        30.43R
SISSETON         N/A     -5 -13  68 NW6       30.40R WCI -18
ABERDEEN       CLEAR     -4 -14  62 NW3       30.41S
MITCHELL       CLEAR     -1  -8  72 N6        30.44R WCI -13
PIERRE         CLEAR      2 -10  57 NE5       30.36R WCI  -8
MOBRIDGE       CLEAR     -1 -10  65 E3        30.32R
RAPID CITY     CLEAR      3  -4  72 CALM      30.23R
$$

  *****  SOME WEATHER IN NEARBY STATES *****

CITY           SKY/WX    TMP DP  RH WIND       PRES   REMARKS
GLASGOW MT     CLEAR     10  -1  61 E13       30.12F WCI  -5
GREAT FALLS MT CLEAR     28  12  51 SW14      30.00R WCI  17
CHEYENNE WY    CLEAR      8  -3  61 SW10      30.11R WCI  -6
SCOTTSBLUFF NE CLEAR     16   4  59 W5        30.22R WCI   9
OMAHA NE       CLEAR     15   0  51 N12       30.44R WCI   2
DES MOINES IA  PTCLDY    16   3  56 N12       30.41R WCI   3
DAVENPORT IA   PTCLDY     9  -1  64 NW7       30.36F WCI  -2
CHICAGO IL     MOCLDY    15   0  51 W13       30.32R WCI   1
EAU CLAIRE WI  MOCLDY     0 -13  54 W6        30.35R WCI -12
LA CROSSE WI   PTCLDY     9  -4  55 W12       30.35R WCI  -6
$$

  *****  SOME NATIONAL WEATHER *****

CITY           SKY/WX    TMP DP  RH WIND       PRES   REMARKS
LA GUARDIA NY  LGT RAIN  43  39  86 SW8       29.91R FOG
RALEIGH NC     MOCLDY    66  53  63 S14       29.88F
ATLANTA GA     MOCLDY    68  61  78 S12       29.93S
NEW ORLEANS LA PTCLDY    72  68  87 S8        29.93R
OKLAHOMA CITY  LGT SNOW  25  19  80 NE14      30.35S VSB 1   WCI  13
ALBUQUERQUE NM PTCLDY    40  14  34 N18G26    30.13R
SALT LAKE CITY CLEAR     33  21  61 VRB3      30.29R
LOS ANGELES CA PTCLDY    60  50  69 W12       30.11R
BOISE ID       CLEAR     38  11  32 CALM      30.28R
SEATTLE WA     MOCLDY    46  22  38 N8        30.28R
$$

*** WEATHER ACROSS MANITOBA...SASKATCHEWAN AND ONTARIO ***
                ***ONTARIO***

CITY           SKY/WX    TMP DP  RH WIND       PRES   REMARKS
GERALDTON      CLEAR    -13 -18  77 SW6       30.10R WCI -27
THUNDER BAY    CLEAR    -11 -18  70 SW6       30.26R WCI -25
SIOUX LOOKOUT  CLEAR    -11 -18  70 SW3       30.17R
TORONTO        FLURRIES  19  12  73 N18       30.02R WCI   4
BIG TROUT LK   MOCLDY    -8 -13  77 W7        30.04R WCI -22
PICKLE LAKE    NOT AVBL
DRYDEN         CLEAR     -6 -17  59 W8        30.18R WCI -21
KENORA         CLEAR     -8 -17  65 W6        30.23R WCI -21
$$
                *** MANITOBA***

CITY           SKY/WX    TMP DP  RH WIND       PRES   REMARKS
BRANDON        CLEAR    -11 -18  70 W13       30.28F WCI -32
DAUPHIN        CLEAR     -6 -17  59 W10G17    30.26S WCI -23
ISLAND LAKE    CLEAR     -6 -17  59 W9        30.11S WCI -22
PILOT MOUND      N/A    -15 -20  76 SW7         N/A  WCI -31
THE PAS        CLEAR     -6 -17  59 SW9       30.14F WCI -22
THOMPSON       CLEAR    -13 -20  70 CALM      30.05S
WINNIPEG       CLEAR     -6 -15  65 SW9       30.33S WCI -22
LYNN LAKE      CLEAR    -13 -20  70 SW6       29.98F WCI -27
CHURCHILL      CRYSTALS -20 -27  69 W9        29.99F WCI -40
GILLAM         CLEAR    -11 -20  64 W6        30.03F WCI -25
$$
                ***SASKATCHEWAN***

CITY           SKY/WX    TMP DP  RH WIND       PRES   REMARKS
ESTEVAN        CLEAR    -15 -20  76 SE6       30.22F WCI -29
KINDERSLEY     MOCLDY     7  -2  66 S10       30.00S WCI  -8
LLOYDMINSTER   MOCLDY     5  -2  72 S9        29.94S WCI  -9
PRINCE ALBERT  MOCLDY    -8 -17  65 SW6       30.12F WCI -21
REGINA         PTCLDY   -11 -18  70 SE13      30.17F WCI -32


USA.gov is the U.S. government's official web portal to all federal, state and local government web resources and services.